EZY17AB EGKK-LFPG

Flight info

Callsign EZY17AB
Flight time N/A
Altitude 25000
Route SFD M605 HARDY UM605 BIBAX
Aircraft A320/M-SDE3FGHIRWY/LB1

Departure

Time N/A
Airport London Gatwick Airport (EGKK)

Arrival

Time 2026-05-08 20:13
Airport Charles de Gaulle International Airport (LFPG)
Time Latitude Longitude Altitude Speed Heading
2026-05-08 20:09 49.01412 2.33345 2894 ft 185 kts 84°
2026-05-08 20:09 49.01524 2.35279 2648 ft 181 kts 84°
2026-05-08 20:10 49.01630 2.37165 2409 ft 176 kts 85°
2026-05-08 20:10 49.01728 2.38923 2180 ft 158 kts 84°
2026-05-08 20:10 49.01816 2.40521 1991 ft 147 kts 84°
2026-05-08 20:10 49.01901 2.42044 1779 ft 139 kts 84°
2026-05-08 20:11 49.01979 2.43474 1602 ft 131 kts 83°
2026-05-08 20:11 49.02053 2.44821 1391 ft 126 kts 85°
2026-05-08 20:11 49.02124 2.46146 1268 ft 126 kts 84°
2026-05-08 20:11 49.02192 2.47488 1070 ft 130 kts 82°
2026-05-08 20:12 49.02273 2.48859 840 ft 129 kts 82°
2026-05-08 20:12 49.02354 2.50229 688 ft 131 kts 83°
2026-05-08 20:12 49.02423 2.51592 522 ft 130 kts 83°
2026-05-08 20:12 49.02499 2.52961 374 ft 129 kts 84°
2026-05-08 20:13 49.02565 2.54137 354 ft 74 kts 85°
2026-05-08 20:13 49.02528 2.54647 356 ft 37 kts 105°
2026-05-08 20:13 49.02481 2.54926 355 ft 26 kts 107°
2026-05-08 20:13 49.02454 2.55079 355 ft 0 kts 104°
2026-05-08 20:14 49.02446 2.55145 358 ft 18 kts 95°
2026-05-08 20:14 49.02453 2.55329 358 ft 17 kts 85°
2026-05-08 20:14 49.02461 2.55508 357 ft 16 kts 89°
2026-05-08 20:15 49.02391 2.55615 355 ft 16 kts 177°
2026-05-08 20:15 49.02286 2.55628 354 ft 15 kts 176°
2026-05-08 20:15 49.02189 2.55640 363 ft 13 kts 173°
2026-05-08 20:15 49.02183 2.55641 363 ft 0 kts 174°
2026-05-08 20:16 49.02149 2.55646 356 ft 12 kts 175°
2026-05-08 20:17 49.02088 2.55700 358 ft 9 kts 122°
2026-05-08 20:17 49.02081 2.55786 357 ft 7 kts 87°
2026-05-08 20:17 49.02084 2.55860 355 ft 12 kts 85°
2026-05-08 20:17 49.02091 2.56007 360 ft 15 kts 86°
2026-05-08 20:18 49.02098 2.56183 355 ft 18 kts 86°
2026-05-08 20:18 49.02051 2.56330 356 ft 16 kts 128°
2026-05-08 20:18 49.02027 2.56497 358 ft 17 kts 85°
2026-05-08 20:18 49.02037 2.56674 355 ft 15 kts 85°
2026-05-08 20:19 49.02045 2.56845 355 ft 17 kts 85°
2026-05-08 20:19 49.02056 2.57042 355 ft 20 kts 86°
2026-05-08 20:19 49.02067 2.57266 358 ft 22 kts 85°
2026-05-08 20:19 49.02081 2.57508 358 ft 20 kts 85°
2026-05-08 20:20 49.02090 2.57711 355 ft 19 kts 86°
2026-05-08 20:20 49.02063 2.57889 355 ft 17 kts 115°
2026-05-08 20:20 49.01982 2.58040 355 ft 20 kts 142°
2026-05-08 20:20 49.01855 2.58118 355 ft 21 kts 171°
2026-05-08 20:21 49.01739 2.58135 355 ft 16 kts 174°
2026-05-08 20:21 49.01633 2.58148 355 ft 14 kts 176°
2026-05-08 20:21 49.01537 2.58158 355 ft 13 kts 176°
2026-05-08 20:21 49.01450 2.58167 360 ft 12 kts 173°
2026-05-08 20:22 49.01370 2.58180 357 ft 11 kts 174°
2026-05-08 20:22 49.01296 2.58191 358 ft 11 kts 175°
2026-05-08 20:22 49.01215 2.58202 357 ft 11 kts 175°
2026-05-08 20:22 49.01164 2.58208 361 ft 11 kts 175°
2026-05-08 20:23 49.01053 2.58221 355 ft 16 kts 175°
2026-05-08 20:23 49.00949 2.58214 355 ft 12 kts 205°
2026-05-08 20:23 49.00913 2.58121 357 ft 10 kts 284°
2026-05-08 20:23 49.00907 2.58024 359 ft 10 kts 260°
2026-05-08 20:24 49.00896 2.57872 355 ft 16 kts 264°
2026-05-08 20:24 49.00887 2.57710 355 ft 15 kts 265°
2026-05-08 20:24 49.00879 2.57561 361 ft 13 kts 265°
2026-05-08 20:24 49.00871 2.57425 355 ft 12 kts 265°
2026-05-08 20:25 49.00864 2.57303 358 ft 11 kts 263°
2026-05-08 20:25 49.00856 2.57164 357 ft 15 kts 265°
2026-05-08 20:25 49.00849 2.57016 357 ft 13 kts 265°
2026-05-08 20:25 49.00842 2.56882 355 ft 12 kts 265°
2026-05-08 20:26 49.00835 2.56760 355 ft 11 kts 265°
2026-05-08 20:26 49.00830 2.56648 355 ft 10 kts 265°
2026-05-08 20:26 49.00824 2.56548 355 ft 9 kts 264°
2026-05-08 20:26 49.00794 2.56472 359 ft 9 kts 214°
2026-05-08 20:27 49.00735 2.56450 355 ft 8 kts 178°
2026-05-08 20:27 49.00678 2.56452 354 ft 8 kts 184°
2026-05-08 20:27 49.00623 2.56421 356 ft 9 kts 190°
2026-05-08 20:27 49.00568 2.56424 357 ft 7 kts 182°
2026-05-08 20:28 49.00539 2.56404 361 ft 3 kts 224°
2026-05-08 20:28 49.00532 2.56392 363 ft 0 kts 230°